| time (UTC) | temp C | wind direction | speed KPH | gust KPH | rain 1hr cm | rain 24hr cm | rain mn cm | humidity % | barometer mb |
| 20260505140507 | 12 | 244 | 6.4 | 12.9 | 0.00 | 0.00 | 0.00 | 82 | 1015.2 |
| 20260505125004 | 12 | 256 | 3.2 | 11.3 | 0.00 | 0.00 | 0.00 | 84 | 1014.3 |
| 20260505124501 | 12 | 177 | 4.8 | 9.7 | 0.00 | 0.03 | 0.00 | 84 | 1014.3 |
| 20260505124005 | 12 | 211 | 1.6 | 11.3 | 0.00 | 0.03 | 0.00 | 84 | 1014.3 |
| 20260505123504 | 12 | 246 | 4.8 | 11.3 | 0.00 | 0.03 | 0.00 | 84 | 1014.3 |
| 20260505123007 | 12 | 235 | 4.8 | 11.3 | 0.00 | 0.03 | 0.00 | 84 | 1014.3 |
| 20260505122508 | 12 | 222 | 4.8 | 11.3 | 0.00 | 0.03 | 0.00 | 84 | 1014.2 |
| 20260505122004 | 12 | 240 | 4.8 | 9.7 | 0.00 | 0.03 | 0.00 | 83 | 1014.2 |
| 20260505121514 | 12 | 238 | 4.8 | 9.7 | 0.00 | 0.03 | 0.00 | 83 | 1014.2 |
| 20260505121007 | 12 | 233 | 6.4 | 9.7 | 0.00 | 0.03 | 0.00 | 83 | 1014.1 |
| 20260505120511 | 12 | 229 | 3.2 | 9.7 | 0.00 | 0.03 | 0.00 | 83 | 1014.1 |
| 20260505120030 | 12 | 226 | 4.8 | 9.7 | 0.00 | 0.03 | 0.00 | 83 | 1014.1 |
| 20260505115508 | 12 | 232 | 4.8 | 9.7 | 0.00 | 0.03 | 0.00 | 83 | 1014.1 |
| 20260505115010 | 12 | 236 | 4.8 | 11.3 | 0.00 | 0.03 | 0.00 | 83 | 1014.1 |
| 20260505114523 | 12 | 173 | 4.8 | 12.9 | 0.00 | 0.03 | 0.00 | 83 | 1014.1 |
| 20260505114007 | 12 | 230 | 8.0 | 12.9 | 0.00 | 0.03 | 0.00 | 83 | 1014.1 |
| 20260505113503 | 12 | 252 | 6.4 | 14.5 | 0.00 | 0.03 | 0.00 | 83 | 1014.0 |
| 20260505113006 | 12 | 221 | 4.8 | 14.5 | 0.00 | 0.03 | 0.00 | 83 | 1014.1 |
| 20260505112504 | 12 | 223 | 6.4 | 11.3 | 0.00 | 0.03 | 0.00 | 83 | 1014.1 |
| 20260505112009 | 12 | 242 | 4.8 | 12.9 | 0.00 | 0.03 | 0.00 | 83 | 1014.1 |
| 20260505111515 | 12 | 223 | 4.8 | 16.1 | 0.00 | 0.03 | 0.00 | 83 | 1014.0 |
| 20260505111005 | 12 | 212 | 6.4 | 17.7 | 0.00 | 0.03 | 0.00 | 83 | 1014.0 |
| 20260505110505 | 12 | 249 | 11.3 | 17.7 | 0.00 | 0.03 | 0.00 | 83 | 1014.1 |
| 20260505102004 | 12 | 235 | 6.4 | 14.5 | 0.00 | 0.03 | 0.00 | 84 | 1013.8 |
| 20260505101511 | 12 | 240 | 8.0 | 16.1 | 0.00 | 0.03 | 0.00 | 84 | 1013.8 |
| 20260505101010 | 12 | 218 | 8.0 | 16.1 | 0.00 | 0.03 | 0.00 | 84 | 1013.8 |
| 20260505100506 | 12 | 242 | 6.4 | 14.5 | 0.00 | 0.03 | 0.00 | 84 | 1013.7 |
| 20260505100014 | 12 | 240 | 8.0 | 14.5 | 0.00 | 0.03 | 0.00 | 84 | 1013.7 |
| 20260505095505 | 12 | 262 | 6.4 | 14.5 | 0.00 | 0.03 | 0.00 | 84 | 1013.7 |
| 20260505095006 | 12 | 258 | 8.0 | 12.9 | 0.00 | 0.03 | 0.00 | 84 | 1013.7 |
| 20260505094521 | 12 | 247 | 6.4 | 12.9 | 0.00 | 0.03 | 0.00 | 84 | 1013.7 |
| 20260505094011 | 12 | 217 | 6.4 | 14.5 | 0.00 | 0.03 | 0.00 | 84 | 1013.7 |
| 20260505093510 | 12 | 221 | 8.0 | 14.5 | 0.00 | 0.03 | 0.00 | 84 | 1013.6 |
| 20260505093023 | 12 | 221 | 9.7 | 19.3 | 0.00 | 0.03 | 0.00 | 84 | 1013.6 |
| 20260505092513 | 12 | 217 | 11.3 | 19.3 | 0.00 | 0.03 | 0.00 | 84 | 1013.5 |
| 20260505092005 | 12 | 262 | 8.0 | 19.3 | 0.00 | 0.03 | 0.00 | 84 | 1013.5 |
| 20260505091507 | 12 | 223 | 8.0 | 16.1 | 0.00 | 0.03 | 0.00 | 84 | 1013.5 |
| 20260505091005 | 12 | 207 | 9.7 | 16.1 | 0.00 | 0.03 | 0.00 | 84 | 1013.5 |
| 20260505090505 | 12 | 227 | 8.0 | 17.7 | 0.00 | 0.03 | 0.00 | 84 | 1013.5 |
| 20260505090017 | 12 | 264 | 12.9 | 17.7 | 0.00 | 0.03 | 0.00 | 84 | 1013.4 |
| 20260505085506 | 12 | 236 | 9.7 | 16.1 | 0.00 | 0.03 | 0.00 | 84 | 1013.3 |
| 20260505085007 | 12 | 209 | 6.4 | 14.5 | 0.00 | 0.03 | 0.00 | 84 | 1013.3 |
| 20260505084516 | 12 | 211 | 6.4 | 16.1 | 0.00 | 0.03 | 0.00 | 84 | 1013.2 |
| 20260505084011 | 12 | 244 | 9.7 | 16.1 | 0.00 | 0.03 | 0.00 | 84 | 1013.4 |
| 20260505083512 | 12 | 261 | 6.4 | 16.1 | 0.00 | 0.03 | 0.00 | 84 | 1013.2 |
| 20260505083022 | 12 | 224 | 8.0 | 19.3 | 0.00 | 0.03 | 0.00 | 84 | 1013.2 |
| 20260505082513 | 12 | 227 | 8.0 | 19.3 | 0.00 | 0.03 | 0.00 | 84 | 1013.2 |
| 20260505082010 | 12 | 246 | 9.7 | 16.1 | 0.00 | 0.03 | 0.00 | 84 | 1013.3 |
| 20260505081522 | 12 | 257 | 9.7 | 19.3 | 0.00 | 0.03 | 0.00 | 84 | 1013.2 |
| 20260505081007 | 12 | 186 | 8.0 | 19.3 | 0.00 | 0.03 | 0.00 | 85 | 1013.3 |
| 20260505080506 | 12 | 213 | 6.4 | 14.5 | 0.00 | 0.03 | 0.00 | 85 | 1013.3 |
| 20260505080006 | 12 | 244 | 4.8 | 14.5 | 0.00 | 0.03 | 0.00 | 85 | 1013.2 |
| 20260505075509 | 12 | 215 | 8.0 | 14.5 | 0.00 | 0.03 | 0.00 | 85 | 1013.2 |
| 20260505075012 | 12 | 218 | 8.0 | 12.9 | 0.00 | 0.03 | 0.00 | 85 | 1013.1 |
| 20260505074512 | 12 | 222 | 4.8 | 16.1 | 0.00 | 0.03 | 0.00 | 85 | 1013.1 |
| 20260505074008 | 12 | 232 | 8.0 | 16.1 | 0.00 | 0.03 | 0.00 | 85 | 1013.0 |
| 20260505073511 | 12 | 219 | 6.4 | 12.9 | 0.00 | 0.03 | 0.00 | 85 | 1013.0 |
| 20260505073020 | 12 | 244 | 8.0 | 17.7 | 0.00 | 0.03 | 0.00 | 85 | 1012.8 |
| 20260505072505 | 12 | 267 | 8.0 | 17.7 | 0.00 | 0.03 | 0.00 | 84 | 1012.6 |
| 20260505072008 | 12 | 259 | 11.3 | 17.7 | 0.00 | 0.03 | 0.00 | 85 | 1012.5 |
| 20260505071530 | 12 | 225 | 6.4 | 16.1 | 0.00 | 0.03 | 0.00 | 84 | 1012.5 |
| 20260505071010 | 12 | 215 | 9.7 | 16.1 | 0.00 | 0.03 | 0.00 | 84 | 1012.6 |
| 20260505070509 | 12 | 246 | 6.4 | 14.5 | 0.00 | 0.03 | 0.00 | 84 | 1012.7 |
| 20260505070027 | 12 | 232 | 6.4 | 14.5 | 0.00 | 0.03 | 0.00 | 84 | 1012.6 |
| 20260505065503 | 12 | 240 | 8.0 | 12.9 | 0.00 | 0.03 | 0.03 | 84 | 1012.5 |
| 20260505065005 | 12 | 229 | 4.8 | 9.7 | 0.00 | 0.03 | 0.03 | 84 | 1012.5 |
| 20260505064510 | 12 | 216 | 6.4 | 9.7 | 0.00 | 0.03 | 0.03 | 84 | 1012.4 |
| 20260505064006 | 12 | 210 | 4.8 | 12.9 | 0.00 | 0.03 | 0.03 | 83 | 1012.4 |
| 20260505063506 | 12 | 255 | 6.4 | 12.9 | 0.00 | 0.03 | 0.03 | 83 | 1012.3 |
| 20260505063018 | 12 | 236 | 6.4 | 11.3 | 0.00 | 0.03 | 0.03 | 83 | 1012.3 |
| 20260505062509 | 12 | 224 | 6.4 | 11.3 | 0.00 | 0.03 | 0.03 | 83 | 1012.3 |
| 20260505062008 | 12 | 200 | 3.2 | 11.3 | 0.00 | 0.03 | 0.03 | 83 | 1012.3 |
| 20260505061523 | 12 | 204 | 4.8 | 9.7 | 0.00 | 0.03 | 0.03 | 83 | 1012.1 |
| 20260505061011 | 12 | 229 | 4.8 | 9.7 | 0.00 | 0.03 | 0.03 | 82 | 1012.0 |
| 20260505060510 | 12 | 222 | 4.8 | 11.3 | 0.00 | 0.03 | 0.03 | 82 | 1012.0 |
| 20260505060040 | 12 | 225 | 6.4 | 11.3 | 0.00 | 0.03 | 0.03 | 82 | 1012.0 |
| 20260505055518 | 12 | 248 | 4.8 | 9.7 | 0.00 | 0.03 | 0.03 | 82 | 1011.9 |
| 20260505055015 | 12 | 204 | 6.4 | 9.7 | 0.00 | 0.03 | 0.03 | 82 | 1011.9 |
| 20260505054513 | 12 | 218 | 4.8 | 9.7 | 0.00 | 0.03 | 0.03 | 82 | 1011.8 |
| 20260505054011 | 12 | 236 | 4.8 | 11.3 | 0.00 | 0.03 | 0.03 | 81 | 1011.9 |
| 20260505053507 | 13 | 229 | 4.8 | 11.3 | 0.00 | 0.03 | 0.03 | 81 | 1012.0 |
| 20260505053016 | 13 | 240 | 6.4 | 11.3 | 0.00 | 0.03 | 0.03 | 81 | 1012.0 |
| 20260505052510 | 13 | 235 | 6.4 | 11.3 | 0.00 | 0.03 | 0.03 | 81 | 1012.0 |
| 20260505052006 | 13 | 236 | 4.8 | 8.0 | 0.00 | 0.03 | 0.03 | 81 | 1011.9 |
| 20260505051525 | 13 | 248 | 1.6 | 6.4 | 0.00 | 0.03 | 0.03 | 81 | 1011.9 |
| 20260505051006 | 13 | 267 | 3.2 | 11.3 | 0.00 | 0.03 | 0.03 | 81 | 1011.8 |
| 20260505050510 | 13 | 219 | 4.8 | 14.5 | 0.00 | 0.03 | 0.03 | 81 | 1011.7 |
| 20260505041522 | 14 | 232 | 14.5 | 25.7 | 0.00 | 0.03 | 0.03 | 77 | 1011.3 |
| 20260505041010 | 14 | 219 | 16.1 | 27.4 | 0.00 | 0.03 | 0.03 | 76 | 1011.2 |
| 20260505040510 | 14 | 250 | 14.5 | 27.4 | 0.00 | 0.03 | 0.03 | 75 | 1011.1 |
| 20260505040025 | 15 | 238 | 12.9 | 22.5 | 0.00 | 0.03 | 0.03 | 74 | 1011.0 |
| 20260505035506 | 15 | 244 | 12.9 | 20.9 | 0.00 | 0.03 | 0.03 | 73 | 1010.9 |
| 20260505035008 | 15 | 224 | 11.3 | 17.7 | 0.00 | 0.03 | 0.03 | 72 | 1010.9 |
| 20260505034526 | 15 | 242 | 9.7 | 19.3 | 0.00 | 0.03 | 0.03 | 72 | 1010.8 |
| 20260505034010 | 16 | 228 | 12.9 | 20.9 | 0.00 | 0.03 | 0.03 | 71 | 1010.7 |
| 20260505033510 | 16 | 227 | 12.9 | 20.9 | 0.00 | 0.03 | 0.03 | 70 | 1010.6 |
| 20260505033027 | 16 | 223 | 12.9 | 20.9 | 0.00 | 0.03 | 0.03 | 69 | 1010.7 |
| 20260505032507 | 16 | 235 | 9.7 | 19.3 | 0.00 | 0.03 | 0.03 | 69 | 1010.6 |
| 20260505032007 | 17 | 227 | 11.3 | 17.7 | 0.00 | 0.03 | 0.03 | 68 | 1010.5 |
| 20260505031514 | 17 | 267 | 9.7 | 17.7 | 0.00 | 0.03 | 0.03 | 67 | 1010.5 |
| 20260505031007 | 17 | 231 | 6.4 | 17.7 | 0.00 | 0.03 | 0.03 | 67 | 1010.3 |
| 20260505030509 | 17 | 240 | 8.0 | 19.3 | 0.00 | 0.03 | 0.03 | 66 | 1010.3 |
| 20260505030020 | 17 | 246 | 9.7 | 19.3 | 0.00 | 0.03 | 0.03 | 65 | 1010.3 |
| 20260505025515 | 17 | 222 | 8.0 | 12.9 | 0.00 | 0.03 | 0.03 | 66 | 1010.2 |
| 20260505025007 | 18 | 254 | 6.4 | 12.9 | 0.00 | 0.03 | 0.03 | 65 | 1010.2 |
| 20260505024522 | 18 | 269 | 8.0 | 16.1 | 0.00 | 0.03 | 0.03 | 65 | 1010.1 |
| 20260505024007 | 18 | 242 | 8.0 | 16.1 | 0.00 | 0.03 | 0.03 | 63 | 1010.1 |
| 20260505023508 | 19 | 271 | 8.0 | 16.1 | 0.00 | 0.03 | 0.03 | 62 | 1010.1 |
| 20260505023027 | 19 | 213 | 8.0 | 16.1 | 0.00 | 0.03 | 0.03 | 61 | 1010.1 |
| 20260505022510 | 19 | 221 | 8.0 | 16.1 | 0.00 | 0.03 | 0.03 | 61 | 1010.0 |
| 20260505022008 | 20 | 271 | 8.0 | 17.7 | 0.00 | 0.03 | 0.03 | 60 | 1010.0 |
| 20260505021516 | 20 | 250 | 8.0 | 17.7 | 0.00 | 0.03 | 0.03 | 60 | 1010.0 |
| 20260505021007 | 20 | 221 | 9.7 | 20.9 | 0.00 | 0.03 | 0.03 | 59 | 1010.0 |
| 20260505020507 | 20 | 258 | 9.7 | 20.9 | 0.00 | 0.03 | 0.03 | 60 | 1009.9 |
| 20260505020021 | 20 | 229 | 9.7 | 19.3 | 0.00 | 0.03 | 0.03 | 58 | 1009.9 |
| 20260505015510 | 21 | 248 | 9.7 | 20.9 | 0.00 | 0.03 | 0.03 | 57 | 1009.9 |
| 20260505015007 | 21 | 238 | 9.7 | 20.9 | 0.00 | 0.03 | 0.03 | 57 | 1009.9 |
| 20260505014524 | 21 | 262 | 12.9 | 20.9 | 0.00 | 0.03 | 0.03 | 56 | 1009.9 |
| 20260505014015 | 21 | 227 | 9.7 | 17.7 | 0.00 | 0.03 | 0.03 | 57 | 1009.8 |
| 20260505013512 | 21 | 276 | 9.7 | 14.5 | 0.00 | 0.03 | 0.03 | 58 | 1009.8 |
| 20260505013026 | 20 | 228 | 6.4 | 14.5 | 0.00 | 0.03 | 0.03 | 60 | 1009.9 |
| 20260505012507 | 21 | 236 | 8.0 | 14.5 | 0.00 | 0.03 | 0.03 | 57 | 1009.8 |
| 20260505012010 | 21 | 277 | 4.8 | 9.7 | 0.00 | 0.03 | 0.03 | 57 | 1009.9 |
| 20260505011528 | 21 | 269 | 4.8 | 14.5 | 0.00 | 0.03 | 0.03 | 58 | 1009.8 |
| 20260505011008 | 21 | 266 | 6.4 | 14.5 | 0.00 | 0.03 | 0.03 | 56 | 1009.9 |
| 20260505010510 | 21 | 276 | 6.4 | 14.5 | 0.00 | 0.03 | 0.03 | 55 | 1009.9 |
| 20260505010016 | 22 | 264 | 4.8 | 12.9 | 0.00 | 0.03 | 0.03 | 55 | 1009.9 |
| 20260505005508 | 22 | 257 | 3.2 | 12.9 | 0.00 | 0.03 | 0.03 | 55 | 1009.9 |
| 20260505005010 | 22 | 263 | 3.2 | 12.9 | 0.00 | 0.03 | 0.03 | 53 | 1009.9 |
| 20260505004526 | 22 | 275 | 4.8 | 12.9 | 0.00 | 0.03 | 0.03 | 52 | 1009.8 |
| 20260505004006 | 23 | 297 | 6.4 | 12.9 | 0.00 | 0.03 | 0.03 | 53 | 1009.8 |
| 20260505003514 | 23 | 257 | 4.8 | 11.3 | 0.00 | 0.03 | 0.03 | 52 | 1009.8 |
| 20260505003024 | 23 | 273 | 4.8 | 11.3 | 0.00 | 0.03 | 0.03 | 51 | 1009.8 |
| 20260505002512 | 23 | 290 | 3.2 | 9.7 | 0.00 | 0.03 | 0.03 | 52 | 1009.7 |
| 20260505002007 | 23 | 267 | 4.8 | 9.7 | 0.00 | 0.03 | 0.03 | 52 | 1009.8 |
| 20260505001527 | 23 | 267 | 6.4 | 9.7 | 0.00 | 0.03 | 0.03 | 50 | 1009.7 |
| 20260505001010 | 23 | 254 | 4.8 | 11.3 | 0.00 | 0.03 | 0.03 | 52 | 1009.7 |
| 20260505000508 | 23 | 280 | 6.4 | 11.3 | 0.00 | 0.03 | 0.03 | 52 | 1009.8 |
| 20260505000023 | 23 | 283 | 4.8 | 11.3 | 0.00 | 0.03 | 0.03 | 51 | 1009.8 |
| 20260504235507 | 23 | 273 | 4.8 | 11.3 | 0.00 | 0.03 | 0.03 | 52 | 1009.8 |
| 20260504235008 | 23 | 269 | 4.8 | 11.3 | 0.00 | 0.03 | 0.03 | 52 | 1009.7 |
| 20260504234521 | 23 | 275 | 4.8 | 11.3 | 0.00 | 0.03 | 0.03 | 53 | 1009.7 |
| 20260504234012 | 23 | 260 | 4.8 | 11.3 | 0.00 | 0.03 | 0.03 | 51 | 1009.7 |
| 20260504233512 | 24 | 275 | 3.2 | 9.7 | 0.00 | 0.03 | 0.03 | 50 | 1009.8 |
| 20260504233026 | 23 | 229 | 4.8 | 12.9 | 0.00 | 0.03 | 0.03 | 51 | 1009.8 |
| 20260504232511 | 23 | 256 | 4.8 | 12.9 | 0.00 | 0.03 | 0.03 | 52 | 1009.8 |
| 20260504232015 | 23 | 268 | 4.8 | 9.7 | 0.00 | 0.03 | 0.03 | 53 | 1009.8 |
| 20260504231528 | 23 | 265 | 3.2 | 14.5 | 0.00 | 0.03 | 0.03 | 54 | 1009.9 |
| 20260504231010 | 23 | 255 | 4.8 | 14.5 | 0.00 | 0.03 | 0.03 | 52 | 1009.9 |
| 20260504230508 | 23 | 253 | 8.0 | 14.5 | 0.00 | 0.03 | 0.03 | 52 | 1010.0 |
| 20260504230029 | 23 | 254 | 8.0 | 12.9 | 0.00 | 0.03 | 0.03 | 52 | 1010.0 |
| 20260504225510 | 23 | 265 | 8.0 | 14.5 | 0.00 | 0.03 | 0.03 | 52 | 1010.2 |
| 20260504225012 | 23 | 256 | 4.8 | 16.1 | 0.00 | 0.03 | 0.03 | 52 | 1010.2 |
| 20260504224521 | 23 | 255 | 9.7 | 16.1 | 0.00 | 0.03 | 0.03 | 51 | 1010.3 |
| 20260504224007 | 23 | 266 | 3.2 | 11.3 | 0.00 | 0.03 | 0.03 | 53 | 1010.3 |
| 20260504223507 | 23 | 270 | 3.2 | 11.3 | 0.00 | 0.03 | 0.03 | 53 | 1010.3 |
| 20260504223024 | 23 | 278 | 4.8 | 12.9 | 0.00 | 0.03 | 0.03 | 54 | 1010.3 |
| 20260504222511 | 22 | 271 | 8.0 | 12.9 | 0.00 | 0.03 | 0.03 | 53 | 1010.4 |
| 20260504222012 | 23 | 332 | 4.8 | 12.9 | 0.00 | 0.03 | 0.03 | 53 | 1010.5 |
| 20260504221528 | 23 | 264 | 3.2 | 11.3 | 0.00 | 0.03 | 0.03 | 53 | 1010.4 |
| 20260504221009 | 23 | 273 | 3.2 | 11.3 | 0.00 | 0.03 | 0.03 | 53 | 1010.5 |
| 20260504220511 | 22 | 297 | 3.2 | 11.3 | 0.00 | 0.03 | 0.03 | 55 | 1010.5 |
| 20260504220038 | 22 | 274 | 4.8 | 9.7 | 0.00 | 0.03 | 0.03 | 54 | 1010.6 |
| 20260504215508 | 22 | 277 | 3.2 | 11.3 | 0.00 | 0.03 | 0.03 | 55 | 1010.6 |
| 20260504215012 | 22 | 284 | 6.4 | 11.3 | 0.00 | 0.03 | 0.03 | 54 | 1010.7 |
| 20260504214528 | 22 | 279 | 3.2 | 11.3 | 0.00 | 0.03 | 0.03 | 55 | 1010.8 |
| 20260504214014 | 22 | 287 | 4.8 | 9.7 | 0.00 | 0.03 | 0.03 | 55 | 1010.7 |
| 20260504213508 | 22 | 286 | 4.8 | 11.3 | 0.00 | 0.03 | 0.03 | 55 | 1010.8 |
| 20260504213025 | 22 | 275 | 4.8 | 11.3 | 0.00 | 0.03 | 0.03 | 55 | 1010.8 |
| 20260504212506 | 22 | 298 | 1.6 | 9.7 | 0.00 | 0.03 | 0.03 | 56 | 1010.9 |
| 20260504212010 | 21 | 279 | 3.2 | 9.7 | 0.00 | 0.03 | 0.03 | 57 | 1010.9 |
| 20260504211533 | 22 | 290 | 1.6 | 9.7 | 0.00 | 0.03 | 0.03 | 56 | 1010.8 |
| 20260504211009 | 21 | 283 | 3.2 | 11.3 | 0.00 | 0.03 | 0.03 | 58 | 1010.9 |
| 20260504210508 | 21 | 277 | 4.8 | 11.3 | 0.00 | 0.03 | 0.03 | 57 | 1010.9 |
| 20260504210026 | 21 | 266 | 4.8 | 11.3 | 0.00 | 0.03 | 0.03 | 56 | 1011.0 |
| 20260504205514 | 21 | 269 | 4.8 | 14.5 | 0.00 | 0.03 | 0.03 | 58 | 1011.1 |
| 20260504205010 | 21 | 261 | 6.4 | 14.5 | 0.00 | 0.03 | 0.03 | 57 | 1011.1 |
| 20260504204529 | 21 | 248 | 4.8 | 11.3 | 0.00 | 0.03 | 0.03 | 58 | 1011.2 |
| 20260504204009 | 21 | 274 | 4.8 | 11.3 | 0.00 | 0.03 | 0.03 | 59 | 1011.1 |
| 20260504203511 | 20 | 296 | 3.2 | 11.3 | 0.00 | 0.03 | 0.03 | 59 | 1011.1 |
| 20260504203027 | 20 | 283 | 3.2 | 11.3 | 0.00 | 0.03 | 0.03 | 58 | 1011.2 |
| 20260504202509 | 20 | 250 | 6.4 | 11.3 | 0.00 | 0.03 | 0.03 | 58 | 1011.2 |
| 20260504202009 | 20 | 260 | 4.8 | 11.3 | 0.00 | 0.03 | 0.03 | 60 | 1011.2 |
| 20260504201525 | 20 | 254 | 4.8 | 12.9 | 0.00 | 0.03 | 0.03 | 1011.2 | |
| 20260504201010 | 20 | 269 | 4.8 | 12.9 | 0.00 | 0.03 | 0.03 | 1011.2 | |
| 20260504200512 | 20 | 286 | 6.4 | 11.3 | 0.00 | 0.03 | 0.03 | 1011.3 | |
| 20260504200026 | 20 | 298 | 1.6 | 11.3 | 0.00 | 0.03 | 0.03 | 1011.3 | |
| 20260504195509 | 20 | 327 | 6.4 | 12.9 | 0.00 | 0.03 | 0.03 | 60 | 1011.3 |
| 20260504195013 | 20 | 296 | 4.8 | 12.9 | 0.00 | 0.03 | 0.03 | 60 | 1011.2 |
| 20260504194528 | 19 | 267 | 6.4 | 12.9 | 0.00 | 0.03 | 0.03 | 1011.3 | |
| 20260504194009 | 19 | 267 | 6.4 | 12.9 | 0.00 | 0.03 | 0.03 | 1011.3 | |
| 20260504193509 | 19 | 275 | 3.2 | 12.9 | 0.00 | 0.03 | 0.03 | 1011.3 | |
| 20260504193030 | 19 | 264 | 6.4 | 12.9 | 0.00 | 0.03 | 0.03 | 1011.3 | |
| 20260504192508 | 19 | 290 | 4.8 | 11.3 | 0.00 | 0.03 | 0.03 | 1011.3 | |
| 20260504192010 | 19 | 240 | 4.8 | 12.9 | 0.00 | 0.03 | 0.03 | 1011.3 | |
| 20260504191526 | 19 | 296 | 4.8 | 12.9 | 0.00 | 0.03 | 0.03 | 60 | 1011.4 |
| 20260504191003 | 20 | 217 | 6.4 | 12.9 | 0.00 | 0.03 | 0.03 | 60 | 1011.4 |
| 20260504190506 | 20 | 259 | 6.4 | 12.9 | 0.00 | 0.03 | 0.03 | 60 | 1011.4 |
| 20260504190009 | 19 | 277 | 4.8 | 9.7 | 0.00 | 0.03 | 0.03 | 62 | 1011.4 |
| 20260504185508 | 18 | 276 | 3.2 | 12.9 | 0.00 | 0.03 | 0.03 | 1011.5 | |
| 20260504185010 | 18 | 277 | 4.8 | 12.9 | 0.00 | 0.03 | 0.03 | 1011.5 | |
| 20260504184518 | 19 | 273 | 3.2 | 9.7 | 0.00 | 0.03 | 0.03 | 61 | 1011.5 |
| 20260504184009 | 19 | 252 | 3.2 | 9.7 | 0.00 | 0.03 | 0.03 | 61 | 1011.5 |
| 20260504183508 | 18 | 275 | 4.8 | 9.7 | 0.00 | 0.03 | 0.03 | 61 | 1011.6 |
| 20260504183019 | 18 | 248 | 4.8 | 9.7 | 0.00 | 0.03 | 0.03 | 62 | 1011.6 |
| 20260504182506 | 18 | 267 | 3.2 | 9.7 | 0.00 | 0.03 | 0.03 | 63 | 1011.6 |
| 20260504182010 | 18 | 267 | 4.8 | 9.7 | 0.00 | 0.03 | 0.03 | 63 | 1011.6 |
| 20260504181530 | 18 | 279 | 3.2 | 6.4 | 0.00 | 0.03 | 0.03 | 63 | 1011.7 |
| 20260504181015 | 18 | 267 | 3.2 | 6.4 | 0.00 | 0.03 | 0.03 | 63 | 1011.7 |
| 20260504180513 | 18 | 280 | 3.2 | 6.4 | 0.00 | 0.03 | 0.03 | 64 | 1011.7 |
| 20260504180008 | 17 | 248 | 3.2 | 6.4 | 0.00 | 0.03 | 0.03 | 66 | 1011.6 |
| 20260504175503 | 17 | 253 | 1.6 | 4.8 | 0.00 | 0.03 | 0.03 | 65 | 1011.6 |
| 20260504175005 | 17 | 288 | 3.2 | 4.8 | 0.00 | 0.03 | 0.03 | 65 | 1011.5 |
| 20260504174512 | 17 | 266 | 1.6 | 6.4 | 0.00 | 0.03 | 0.03 | 65 | 1011.6 |
| 20260504174006 | 17 | 294 | 3.2 | 6.4 | 0.00 | 0.03 | 0.03 | 65 | 1011.6 |
| 20260504173508 | 17 | 258 | 3.2 | 8.0 | 0.00 | 0.03 | 0.03 | 66 | 1011.6 |
| 20260504173018 | 17 | 232 | 4.8 | 8.0 | 0.00 | 0.03 | 0.03 | 67 | 1011.6 |
| 20260504172506 | 17 | 224 | 4.8 | 9.7 | 0.00 | 0.03 | 0.03 | 66 | 1011.5 |
| 20260504172011 | 17 | 239 | 4.8 | 9.7 | 0.00 | 0.03 | 0.03 | 66 | 1011.5 |
| 20260504171519 | 17 | 268 | 4.8 | 11.3 | 0.00 | 0.03 | 0.03 | 68 | 1011.4 |
| 20260504171009 | 16 | 236 | 4.8 | 11.3 | 0.00 | 0.03 | 0.03 | 67 | 1011.5 |
| 20260504170510 | 17 | 232 | 4.8 | 11.3 | 0.00 | 0.03 | 0.03 | 67 | 1011.5 |
| 20260504151006 | 15 | 273 | 3.2 | 6.4 | 0.00 | 0.03 | 0.03 | 70 | 1010.6 |
| 20260504150510 | 15 | 221 | 1.6 | 6.4 | 0.00 | 0.03 | 0.03 | 69 | 1010.7 |